Wind_Speed
23 22 21 20 18 17 16 15 14 13 12 12 11 11 10 10 9 9 9 8 8 7 7 8 8 7 9 11 11 9 9 11 13 12 12 13 14 14 13 12 13 14 15 15 15 14 14 14 14 16 17 17 18 17 17 17 17 17 17 17 17 17 16 16 15 15 15 15 15 14 14 14 14 13
22 22 22 21 20 18 17 17 16 15 14 13 13 13 12 11 11 10 10 10 9 8 7 8 8 8 9 9 9 8 8 12 13 13 13 14 14 15 14 14 15 16 16 17 17 16 16 15 15 15 15 16 16 16 16 17 17 17 17 17 17 16 16 15 15 14 14 14 14 13 13 13 13 13
22 22 22 21 21 20 18 18 17 16 16 15 14 14 13 12 12 11 10 12 11 9 8 8 8 9 10 9 9 8 9 13 14 13 14 15 15 15 16 15 16 16 18 18 18 18 18 17 16 16 15 15 16 16 16 16 17 17 17 16 16 15 14 14 14 13 12 12 13 13 13 13 14 14
21 21 22 22 22 21 19 18 18 18 17 17 16 15 14 14 13 12 12 14 14 12 10 10 9 9 10 11 10 10 10 13 15 14 14 16 16 16 16 17 17 17 18 18 19 19 19 18 18 17 17 16 16 16 16 16 16 16 16 16 15 14 13 13 13 12 12 12 12 13 13 14 14 15
21 21 22 22 22 22 20 20 19 18 18 17 17 16 15 15 14 13 13 14 15 14 12 11 11 10 10 11 11 10 11 12 13 13 14 15 16 15 15 15 17 17 17 18 19 19 19 19 19 18 18 18 17 17 17 17 17 17 16 16 15 14 13 13 13 12 12 13 13 14 15 15 15 16
23 21 22 23 23 22 21 21 20 19 18 18 18 17 16 16 15 14 14 14 14 14 12 12 11 10 11 11 11 12 13 13 13 13 14 14 15 16 15 14 16 17 17 17 18 18 19 19 19 19 19 19 19 19 19 19 18 18 18 17 16 15 14 14 14 15 15 16 16 16 16 16 16 17
24 23 22 23 23 21 21 21 20 19 18 18 18 17 17 17 16 15 15 15 15 14 13 13 12 10 11 12 12 14 16 16 15 16 15 15 15 16 16 15 16 18 18 17 17 18 18 19 19 19 19 20 20 20 20 20 20 19 19 19 19 17 16 15 16 17 18 18 18 18 19 18 18 18
26 24 23 22 21 21 20 20 19 19 18 17 18 18 18 17 17 16 15 15 16 16 14 14 13 11 11 13 14 15 16 16 16 17 16 16 16 17 17 16 16 18 18 17 17 18 18 18 19 19 20 20 21 21 22 22 21 21 21 21 21 20 19 19 19 20 21 20 20 20 20 19 19 18
29 26 25 22 21 21 21 21 21 19 18 18 18 18 18 18 17 16 16 15 16 16 16 15 14 13 12 13 16 17 16 14 14 15 15 16 18 18 17 17 18 19 19 18 18 19 19 20 20 21 21 22 22 22 22 22 22 22 22 23 23 23 22 22 22 22 22 22 21 21 20 20 19 19
31 29 28 27 26 25 25 26 23 20 21 20 19 19 19 19 18 16 16 16 16 16 17 16 15 14 13 14 16 18 17 14 13 13 13 14 16 16 16 15 17 20 20 19 19 19 20 21 21 21 22 23 23 23 23 23 23 23 24 24 24 24 24 24 24 23 22 22 22 22 21 21 20 20
32 31 30 30 30 29 29 29 26 23 23 22 21 21 20 20 19 19 18 17 17 17 17 17 16 15 15 15 16 17 18 17 16 15 15 14 14 15 15 15 16 17 18 18 19 19 20 21 21 21 21 23 23 23 23 23 23 24 24 24 25 24 23 23 22 21 21 20 20 21 20 20 20 20
33 31 30 30 30 29 29 29 27 25 24 23 22 23 22 21 20 20 19 18 18 18 18 17 17 15 16 17 17 16 16 17 17 17 17 16 15 16 17 17 17 17 17 17 17 17 19 20 20 20 21 22 22 23 23 23 23 23 23 23 24 23 21 20 20 19 19 19 19 19 19 19 19 19
32 31 32 31 30 29 29 28 27 26 26 25 23 23 24 24 23 23 22 19 19 19 18 17 17 17 17 18 17 17 16 17 16 17 17 17 16 15 15 17 19 19 18 16 15 15 16 17 18 18 18 19 19 21 22 22 22 21 21 21 22 21 20 20 20 19 19 19 19 19 19 19 19 19
30 31 33 32 30 30 29 29 28 27 27 28 27 25 25 26 27 28 27 22 20 19 20 19 18 18 18 17 17 17 17 18 18 17 17 17 16 15 16 16 18 20 18 16 16 16 15 15 16 16 16 16 16 17 18 19 20 19 19 19 19 20 19 20 20 20 19 19 18 18 17 17 17 17
29 28 30 31 31 30 30 30 29 28 27 29 30 30 29 28 29 30 30 27 23 22 22 21 19 19 18 16 16 16 15 16 17 17 16 16 15 16 17 16 15 16 16 15 15 15 15 15 15 15 16 15 14 14 15 16 16 15 16 17 18 19 19 19 19 19 18 17 16 15 15 15 16 15
27 26 25 27 29 31 31 30 30 29 28 28 30 31 31 31 31 32 32 31 28 27 26 24 23 22 19 17 16 16 16 15 16 17 18 16 16 17 18 18 16 15 15 16 15 13 14 16 15 15 16 15 14 15 15 15 14 13 14 15 16 16 16 16 15 15 14 14 14 14 13 14 15 14
26 25 24 24 26 30 32 31 30 29 28 28 29 30 31 32 33 33 34 33 32 32 31 30 29 27 23 20 19 19 20 19 17 19 19 17 18 18 19 20 18 16 16 17 16 13 13 13 13 13 14 13 13 15 15 13 13 13 12 13 13 13 13 13 13 12 12 13 13 12 12 13 13 14
25 26 26 26 25 26 30 32 30 29 29 28 28 29 31 33 34 35 36 36 35 35 35 34 32 30 27 25 23 22 24 23 20 20 20 19 18 19 19 19 17 17 18 18 17 16 14 12 12 12 13 13 14 14 13 12 12 12 11 12 12 12 12 12 12 12 12 12 12 12 12 11 12 13
26 26 27 28 26 25 28 31 31 30 30 29 28 29 30 32 33 35 37 37 37 37 37 37 35 32 29 28 26 25 25 24 22 22 21 20 20 19 20 21 19 19 20 18 18 18 16 13 13 13 13 13 13 14 13 12 11 10 10 11 11 10 10 10 10 11 11 11 11 10 10 10 10 12
27 26 27 28 28 27 27 28 29 30 31 30 29 29 30 31 32 34 36 36 37 39 39 37 35 33 31 29 27 26 26 25 23 23 22 21 20 20 21 22 21 20 19 17 17 18 17 15 14 13 12 11 10 11 12 11 10 10 10 11 11 10 10 10 10 10 10 10 10 9 9 9 9 9
28 28 28 28 27 27 27 27 25 26 29 29 29 29 30 31 33 34 34 34 36 38 38 37 34 32 31 30 28 27 27 25 24 24 24 22 20 20 20 21 21 21 19 18 16 17 17 16 14 11 10 10 9 10 11 11 11 11 11 11 11 11 10 10 10 9 9 9 9 9 9 8 8 8
28 30 30 29 28 28 28 27 25 25 26 28 29 30 29 31 34 34 33 34 35 36 36 36 34 33 32 30 29 30 29 27 26 26 26 22 19 18 18 19 20 19 20 19 17 17 16 13 11 9 9 10 10 10 13 14 14 14 12 11 11 11 9 10 10 9 9 9 9 9 8 7 7 8
27 29 29 28 29 29 28 27 27 28 28 28 30 31 29 30 34 34 33 33 35 34 35 36 35 34 33 31 31 31 30 29 28 27 26 23 19 17 18 19 19 19 20 19 18 18 17 12 10 10 10 10 9 9 11 13 14 14 13 11 10 9 9 11 11 10 10 10 9 9 8 7 8 9
25 26 26 25 26 27 27 27 28 30 30 29 30 31 31 32 34 33 32 31 32 32 33 33 33 34 34 32 31 31 31 30 29 28 26 25 23 21 22 21 21 20 19 16 17 18 16 12 10 10 10 9 8 8 10 11 11 11 11 10 10 10 11 12 12 10 10 9 8 8 8 8 9 8
23 24 23 23 23 24 24 25 27 31 32 32 32 32 32 33 33 32 30 28 27 29 30 30 29 31 32 31 30 31 31 31 29 28 27 26 25 25 23 22 21 20 16 16 17 17 14 12 10 9 9 8 8 9 11 10 9 9 9 8 8 9 10 10 9 9 9 9 8 9 9 10 11 11
22 22 21 20 21 21 21 23 25 27 30 33 34 34 33 32 31 31 31 30 29 29 30 29 28 30 32 31 30 31 32 31 29 27 25 24 25 26 23 21 19 17 16 19 20 17 14 14 13 10 9 8 8 10 11 10 9 9 9 8 8 8 8 8 9 9 10 10 9 10 11 12 12 12
21 20 19 19 19 19 20 22 24 24 26 29 32 33 33 32 31 30 31 32 33 33 32 30 29 30 31 32 32 30 29 29 29 27 23 22 22 23 22 20 19 17 18 20 19 15 13 13 13 10 8 8 8 9 9 9 9 10 10 9 8 8 9 9 9 10 11 11 11 11 11 11 11 11
22 21 19 19 19 19 20 22 23 23 24 25 28 29 30 31 32 32 32 33 34 35 35 34 33 30 29 31 32 29 25 26 28 26 22 21 21 20 20 19 19 19 21 18 13 11 11 11 11 10 9 9 9 8 7 7 7 8 7 6 6 8 9 9 9 9 9 10 11 11 10 9 8 8
25 24 24 23 21 20 20 21 22 22 22 23 24 26 27 29 31 31 32 33 34 35 36 37 35 33 31 32 32 29 25 26 28 26 23 21 21 19 18 18 16 17 18 15 11 10 10 10 11 10 9 9 8 6 5 5 4 5 4 3 4 7 8 7 7 8 8 7 7 8 7 5 4 4
26 27 27 26 25 23 23 24 25 25 24 24 23 23 25 27 28 27 28 31 34 36 37 37 35 34 35 34 31 28 27 27 27 26 24 22 20 20 19 18 16 15 15 14 12 11 11 11 11 9 8 8 6 4 5 5 4 5 4 4 6 8 7 5 4 6 6 5 4 4 3 3 3 2
25 25 25 25 25 25 24 24 25 26 26 25 25 24 23 25 27 27 28 30 33 34 36 35 34 34 35 34 30 29 30 29 28 27 25 22 21 20 19 18 17 16 15 13 12 12 12 11 10 9 9 8 5 5 7 8 6 4 5 5 6 6 6 5 3 3 4 3 2 1 0 1 2 1
22 22 23 23 23 23 22 22 22 22 22 23 24 24 24 25 26 27 28 30 31 32 33 33 33 34 35 34 31 30 29 28 28 27 24 23 22 21 20 18 17 16 14 12 12 12 12 10 9 9 9 8 7 6 7 7 6 6 6 5 5 4 3 3 1 2 2 4 3 1 2 3 3 3
18 18 19 20 20 19 18 17 16 16 16 18 19 21 23 24 25 26 29 30 31 32 32 31 31 32 33 32 32 32 31 29 28 26 24 23 23 22 20 18 16 15 13 10 9 11 12 11 9 9 8 8 7 6 4 3 4 6 6 4 5 4 3 2 2 2 2 6 5 2 2 3 3 1
15 15 16 16 16 15 14 14 13 12 12 14 16 18 21 22 22 23 26 29 30 31 31 29 29 30 30 28 27 29 31 30 27 25 24 24 24 22 20 17 15 13 12 10 9 10 10 10 9 9 9 7 6 6 7 6 5 6 6 5 5 5 5 4 3 2 4 6 5 4 2 2 1 2
14 13 12 12 12 12 12 12 11 10 9 10 12 15 17 20 21 20 22 26 29 28 27 27 27 28 28 26 24 28 31 29 26 24 25 26 24 21 18 15 13 11 11 11 10 9 9 9 9 8 7 6 3 5 10 12 9 6 6 6 6 5 5 5 4 4 4 4 5 5 4 1 0 1
12 10 9 10 10 10 9 10 10 8 7 7 8 10 12 15 17 18 19 22 23 23 24 26 26 26 26 25 26 28 30 29 28 28 27 25 22 19 17 15 12 11 11 10 9 9 9 9 9 9 9 9 8 7 10 13 13 11 8 7 6 6 6 6 6 5 4 4 4 5 3 2 1 2
10 9 9 9 10 9 8 9 9 8 6 6 7 8 8 9 12 15 17 17 18 20 21 21 22 23 23 24 27 30 30 30 30 30 27 23 20 17 16 15 12 11 11 10 10 9 9 10 11 11 11 11 10 10 10 11 13 13 11 8 6 6 6 6 6 5 4 4 3 2 2 2 1 2
9 9 8 8 9 9 9 9 9 7 6 7 8 7 5 6 8 11 13 12 13 15 17 18 19 21 21 21 24 30 34 31 28 26 24 21 19 17 16 16 14 11 11 12 12 11 10 11 12 12 12 11 10 10 11 10 10 11 10 8 7 6 6 6 4 3 3 3 1 1 2 2 1 4
9 9 8 8 9 9 9 9 8 7 7 8 7 6 4 4 6 8 7 7 8 11 14 14 14 16 15 11 12 20 27 26 24 22 20 18 18 17 17 17 14 11 11 13 13 11 11 12 13 13 12 10 8 10 12 12 10 9 9 8 7 6 5 4 4 2 1 2 1 1 1 1 2 4
10 9 8 8 8 8 8 8 7 8 8 8 7 5 4 4 5 6 6 7 9 10 11 13 14 14 13 12 13 17 19 19 19 18 16 17 18 17 16 14 14 13 13 14 13 12 13 14 14 14 13 11 10 12 14 13 11 10 10 8 7 6 5 3 3 2 1 1 0 1 1 1 1 2
10 8 8 8 8 8 7 6 6 6 7 8 8 7 4 4 5 7 8 8 8 8 10 14 17 16 14 15 16 17 17 18 18 16 14 16 17 18 16 15 14 14 15 14 14 14 15 15 16 16 15 14 13 14 13 11 9 10 12 11 9 7 6 5 4 4 3 2 1 0 1 1 1 2
10 8 8 8 8 7 6 5 6 6 6 6 8 7 5 4 6 9 10 10 9 7 7 11 15 16 15 15 16 16 17 17 17 15 14 14 16 17 18 17 15 15 15 15 15 15 17 18 18 17 15 13 13 13 13 12 10 11 12 12 11 9 8 7 7 6 5 4 2 1 2 2 2 1
10 8 8 8 8 7 6 6 6 6 6 6 7 8 6 5 7 10 12 11 10 8 7 10 13 14 14 15 15 15 15 15 14 14 15 15 16 17 17 16 15 15 15 15 14 15 17 18 17 16 14 13 13 12 12 13 13 11 10 12 12 10 8 7 5 4 3 3 3 1 2 4 3 2
8 7 8 9 9 9 9 8 8 8 8 8 8 8 8 8 9 10 10 10 10 10 10 11 12 12 13 15 15 14 14 14 14 15 16 16 16 16 16 16 15 15 15 15 14 13 14 16 16 16 15 13 12 10 10 12 13 11 8 9 9 9 7 5 3 1 1 1 1 3 4 4 4 3
7 7 8 8 9 10 10 9 8 8 9 9 9 9 10 11 11 11 11 11 11 12 12 13 13 12 12 13 13 14 15 15 15 16 16 15 15 15 15 16 15 15 15 15 14 14 15 16 16 16 14 13 12 10 8 10 12 10 8 8 8 7 6 5 3 1 1 2 5 8 8 7 7 6
Wind_Direction
231 231 234 236 239 241 242 244 244 242 243 242 239 240 242 247 259 270 273 270 267 263 255 252 256 251 247 257 263 262 257 252 255 258 256 255 259 262 261 258 258 257 255 254 255 257 260 261 259 254 252 252 254 256 257 259 260 260 262 265 267 270 272 273 274 276 279 281 283 286 289 292 297 301
231 231 233 236 239 241 243 244 244 243 243 242 240 238 238 239 245 256 268 272 271 270 265 256 256 256 252 255 260 257 251 251 253 255 256 257 257 260 262 260 258 258 257 257 257 259 261 262 260 256 254 253 253 255 258 259 260 260 261 265 267 269 270 271 273 276 279 280 282 285 290 294 296 296
229 230 231 233 236 239 241 244 245 244 242 242 241 239 238 239 241 244 254 265 268 270 272 264 255 258 259 257 258 257 255 258 258 254 256 260 260 261 262 259 257 257 258 257 258 260 261 261 259 254 252 252 252 254 256 258 259 261 261 263 265 267 268 269 271 275 277 279 282 288 292 295 294 293
228 229 230 232 234 237 240 244 245 245 242 241 240 239 239 239 240 238 242 256 264 268 270 267 261 260 265 266 263 258 256 263 266 260 257 261 264 266 266 264 260 257 257 257 256 257 259 260 258 253 250 250 252 253 255 258 259 260 261 261 262 264 265 267 269 273 276 279 284 288 290 292 293 293
227 228 229 230 233 235 238 242 244 244 242 241 240 239 239 239 239 238 241 251 262 267 267 266 264 262 260 260 260 257 255 261 267 266 262 263 265 264 264 266 265 261 258 258 257 257 258 259 258 254 252 252 253 254 255 258 260 260 260 261 261 262 263 266 268 270 274 278 281 283 285 287 289 291
227 226 228 231 233 235 238 240 242 243 242 241 240 239 239 242 242 241 242 247 255 262 265 265 267 267 262 259 256 255 254 253 258 264 265 265 265 263 260 259 263 265 262 259 259 257 256 257 257 254 254 254 255 256 257 259 261 262 262 261 261 262 264 266 268 268 271 274 277 279 280 282 285 288
227 225 227 231 233 233 236 239 240 241 241 240 240 240 241 244 245 245 244 244 249 256 261 263 266 267 266 265 262 261 264 263 262 264 266 265 263 266 267 262 261 265 265 260 258 258 255 255 256 255 255 256 256 257 258 260 261 263 262 262 262 262 264 267 269 268 269 271 273 276 277 279 282 285
227 226 227 231 233 233 236 239 240 240 240 240 240 241 242 243 246 248 248 246 248 252 255 258 261 262 262 265 266 268 270 271 270 268 266 264 263 265 268 265 261 263 267 264 259 259 257 256 257 257 257 257 257 257 258 259 261 262 263 263 263 263 264 266 268 267 267 268 270 273 276 278 280 282
226 226 225 225 227 229 232 233 234 235 238 240 241 241 242 242 245 248 249 248 248 249 252 255 256 259 260 262 267 271 269 266 268 270 270 270 269 266 264 265 265 265 266 265 262 261 261 260 259 259 259 258 258 259 259 260 261 262 262 263 263 263 264 264 265 266 267 269 271 273 275 276 277 279
228 226 224 223 224 227 230 232 232 233 237 240 240 241 241 241 243 247 249 249 247 247 251 252 253 255 257 257 263 271 271 264 257 261 266 269 271 269 264 261 266 268 267 266 265 264 263 263 261 261 261 261 260 260 260 261 261 261 261 262 262 262 262 264 265 266 268 270 272 273 273 274 276 277
229 227 226 227 228 230 235 238 237 236 238 239 239 240 239 240 243 246 247 248 247 247 250 251 250 250 251 253 259 267 272 270 263 259 259 258 262 267 264 256 256 262 266 267 266 266 265 265 265 263 262 261 260 259 259 258 259 259 259 260 261 262 262 263 263 264 267 269 271 271 271 273 274 275
230 228 229 232 233 233 237 239 237 236 235 236 237 238 238 238 239 242 244 245 245 245 247 247 246 244 246 252 259 261 262 265 266 266 263 259 257 260 261 261 260 258 261 264 265 267 268 269 270 268 264 261 259 258 258 257 257 258 258 258 260 262 262 263 263 264 266 267 267 267 268 269 270 271
230 229 233 237 239 240 241 240 238 237 235 232 232 234 237 237 236 238 241 241 242 243 242 242 242 242 243 249 255 256 254 258 264 267 267 264 259 256 257 262 265 264 262 261 260 261 263 267 270 270 267 263 260 258 257 257 256 256 257 257 260 262 263 264 265 266 266 266 266 266 266 266 267 267
231 233 237 240 240 242 244 242 239 240 238 236 233 232 237 240 240 241 241 239 238 239 239 240 242 244 245 243 247 253 257 261 265 268 268 265 259 256 255 256 263 267 266 261 259 257 255 256 261 263 263 264 264 261 258 257 255 254 256 257 258 261 261 263 265 266 266 266 266 265 266 267 266 263
235 234 239 243 243 243 243 242 242 242 242 241 238 235 237 239 240 241 241 239 237 236 239 241 242 245 246 242 243 247 251 257 262 264 264 260 253 253 254 254 257 263 265 265 263 258 253 251 252 255 257 257 258 260 259 260 260 256 255 255 257 259 260 262 263 264 264 264 264 265 266 267 267 262
237 233 235 241 245 245 244 243 245 246 245 244 241 240 239 240 240 240 239 239 238 237 239 239 239 242 244 244 246 249 250 253 258 262 264 260 254 253 254 253 251 252 260 266 264 255 255 256 252 252 257 256 253 257 259 261 264 260 255 254 254 256 258 260 262 262 262 262 262 263 264 265 267 263
238 236 232 233 240 246 246 245 245 248 249 245 242 242 241 241 241 240 239 239 238 239 242 243 243 244 244 245 248 253 258 260 259 262 265 263 261 260 258 256 253 251 255 262 261 255 254 256 253 252 258 255 251 255 258 258 258 256 254 254 254 256 258 257 257 258 259 259 260 261 262 262 262 260
236 236 233 229 231 239 245 245 244 246 248 246 243 243 243 243 242 239 238 237 236 237 241 244 246 246 246 248 250 254 261 265 263 262 264 265 266 264 261 259 255 251 254 260 262 258 250 246 246 246 247 247 249 254 256 254 253 253 254 256 258 260 260 256 255 256 256 256 257 258 259 260 258 258
237 237 236 233 229 231 239 244 244 244 246 246 243 242 243 244 243 240 238 236 234 235 238 242 245 246 247 251 253 254 259 263 264 262 263 265 265 262 262 265 262 257 260 262 260 257 252 243 240 242 242 246 254 259 254 247 248 252 256 260 262 262 260 257 254 254 255 254 253 253 254 255 254 256
238 238 238 236 232 231 234 239 241 241 242 242 242 241 241 242 242 242 240 237 236 236 238 241 245 248 251 254 254 253 256 260 262 262 262 264 265 263 263 266 266 263 263 260 255 257 256 245 240 245 244 240 248 259 256 246 247 257 262 265 266 263 262 261 258 254 252 251 250 250 250 252 254 258
242 241 240 237 235 235 236 236 238 239 239 239 238 240 241 241 241 243 243 241 238 236 238 242 245 248 251 253 253 251 252 256 258 258 259 261 265 267 263 261 263 263 260 256 253 257 256 248 241 242 241 238 244 256 258 254 254 260 264 264 264 263 261 260 258 255 250 246 246 246 247 249 252 261
245 244 243 240 238 239 240 239 237 239 241 239 235 235 237 239 242 243 243 241 238 235 236 239 243 245 247 248 249 249 250 252 252 254 257 258 259 260 258 256 259 262 259 253 249 251 252 247 238 229 230 246 257 255 257 262 266 264 259 258 262 262 258 255 252 247 244 243 243 245 247 251 263 277
247 247 246 244 242 242 244 244 241 241 242 241 240 237 235 237 242 244 243 241 240 237 236 238 240 242 243 243 244 246 248 250 250 252 254 253 249 245 247 251 255 260 261 255 248 250 250 243 236 231 233 251 260 250 254 270 276 267 256 254 259 254 250 254 252 244 243 246 247 249 254 263 280 294
251 251 250 249 247 246 247 248 246 243 242 242 244 244 240 239 242 243 242 243 244 242 241 242 242 242 243 243 243 245 247 249 250 250 249 249 245 241 242 248 253 257 261 256 249 251 249 240 236 238 239 249 254 249 259 275 278 263 249 249 252 241 239 251 258 252 248 248 247 254 263 270 282 294
252 252 252 252 251 249 248 249 248 246 243 242 244 246 244 242 243 242 241 242 243 244 245 246 246 245 244 243 243 244 246 248 249 248 246 245 244 242 244 249 251 251 249 246 246 246 238 231 233 239 243 250 251 251 262 273 268 248 238 242 247 242 239 247 253 250 246 245 250 262 272 274 282 290
250 252 253 253 253 252 250 251 251 249 246 244 245 246 244 244 245 243 241 239 239 242 243 242 242 244 244 243 242 244 246 246 246 246 245 241 242 245 247 247 245 241 236 238 243 240 231 232 239 243 246 250 244 240 248 256 247 234 232 237 239 240 241 242 245 247 249 251 254 262 270 275 281 288
252 254 255 254 253 251 252 254 255 254 250 246 246 246 244 244 245 244 242 241 241 242 242 239 238 240 243 243 243 244 243 241 241 244 244 242 243 246 245 237 230 228 231 239 243 236 230 239 246 241 235 240 242 238 237 240 235 228 229 234 238 242 243 243 248 251 250 252 256 260 267 274 280 284
253 256 255 253 252 252 253 257 259 258 255 250 248 246 245 244 244 243 242 242 243 243 243 241 237 235 237 241 245 244 240 238 239 240 240 241 244 244 241 233 225 223 228 236 239 229 226 237 240 231 225 232 240 241 237 235 235 231 229 236 251 256 253 247 248 253 251 252 259 264 267 277 291 296
249 254 256 255 254 254 255 259 264 266 263 256 252 250 248 245 243 243 243 243 243 243 243 242 240 239 240 244 247 245 237 235 237 237 237 240 240 235 232 229 220 216 221 228 231 228 228 233 234 231 231 231 233 239 239 236 237 233 226 233 256 264 269 260 242 245 255 258 262 266 264 265 285 307
246 251 256 257 257 257 257 259 263 266 267 264 259 254 250 247 243 241 241 242 242 243 243 243 243 242 242 245 245 242 237 237 239 237 235 234 230 223 221 219 211 209 217 223 226 227 227 230 234 236 230 220 214 222 226 219 218 229 234 235 237 249 272 279 239 226 240 243 239 245 244 238 238 222
249 252 257 260 261 260 259 258 258 259 261 261 259 255 251 248 245 241 239 240 241 242 243 243 241 240 242 243 241 239 239 239 237 233 229 225 221 216 210 206 206 209 214 219 223 226 228 229 232 233 227 218 204 208 220 216 209 228 251 240 219 227 260 279 273 235 222 203 199 240 206 51 15 43
254 256 259 262 264 265 263 261 260 261 261 262 261 258 254 252 250 247 244 242 242 242 241 241 239 239 240 241 238 235 236 233 228 225 221 214 212 207 198 197 205 210 212 218 224 224 222 221 221 225 228 225 214 214 229 228 210 213 236 224 188 191 236 251 266 263 199 130 101 43 83 93 58 31
255 259 263 267 270 272 271 268 265 264 265 264 262 260 258 255 252 250 246 242 241 240 237 236 236 235 238 240 234 228 228 228 223 220 215 207 203 200 197 199 206 209 212 218 218 214 214 214 219 226 227 226 225 219 219 222 195 191 199 188 162 161 168 162 199 246 135 111 113 109 96 108 117 95
251 256 264 270 272 270 269 270 270 266 264 262 260 260 259 256 253 251 246 242 241 240 235 232 232 233 236 238 231 221 219 219 214 212 211 204 197 196 197 198 200 205 212 211 203 206 213 212 217 225 220 222 233 213 171 157 168 176 170 156 153 156 145 139 161 161 110 112 128 136 121 118 146 172
252 258 262 266 267 264 262 263 265 265 265 266 267 264 259 254 252 250 244 240 240 240 234 228 229 232 233 235 233 226 218 209 200 199 200 196 192 192 194 196 198 200 202 200 197 204 212 205 202 207 196 181 181 167 154 151 153 157 156 150 148 147 143 144 149 137 124 132 139 134 135 144 357 279
250 257 258 257 257 258 259 261 262 263 265 271 276 273 264 256 249 244 240 239 239 236 230 225 227 233 234 233 232 227 216 203 194 192 191 187 186 187 188 194 201 198 192 198 205 204 198 189 181 176 168 161 155 150 153 157 155 151 148 148 147 149 151 149 144 134 130 139 137 129 133 151 158 275
244 247 249 254 255 253 257 262 264 265 265 271 276 274 269 264 250 236 231 231 229 227 224 223 225 230 231 230 228 222 212 201 194 189 182 178 180 185 187 192 200 196 188 194 201 194 184 176 173 172 172 169 162 152 149 158 161 155 147 140 141 148 144 132 126 129 138 148 145 130 135 169 184 301
239 242 244 251 254 252 253 256 261 267 272 273 272 271 273 268 244 224 216 218 221 218 216 220 224 224 226 231 226 210 196 189 184 176 172 174 180 184 189 192 192 186 181 185 189 184 177 175 177 179 178 177 175 167 157 157 164 162 153 146 146 147 137 127 133 153 159 154 155 150 164 195 283 332
235 242 244 247 252 252 250 250 252 253 256 261 265 269 272 257 231 209 190 183 190 195 198 203 209 208 207 212 197 172 165 166 167 166 172 182 184 183 186 188 185 179 177 182 186 181 177 180 183 183 183 183 178 165 160 167 178 175 164 161 160 150 137 135 148 167 152 128 139 224 202 237 309 338
234 242 244 243 247 248 245 244 241 234 232 237 243 249 253 239 217 198 178 162 157 163 166 160 154 155 161 159 147 137 141 156 167 171 180 188 187 183 180 178 180 181 178 180 185 182 180 184 184 179 182 189 178 162 162 175 187 183 177 181 181 170 166 162 150 148 146 100 42 288 269 353 34 56
227 243 249 243 239 239 236 232 230 227 224 221 216 214 220 219 197 182 173 159 145 146 153 149 145 148 158 161 155 149 155 168 174 176 180 185 185 183 179 174 176 179 176 176 179 177 180 189 190 184 186 191 189 179 173 173 180 186 192 197 199 199 209 219 217 216 225 246 309 182 190 208 146 119
222 237 245 234 225 222 219 213 212 214 215 211 201 192 194 206 187 167 157 147 136 136 149 150 150 156 163 165 166 167 171 174 176 176 176 177 178 179 178 175 174 172 170 171 172 175 185 195 196 192 188 183 180 182 179 172 176 192 200 201 207 217 227 234 240 243 246 259 271 225 187 212 228 177
213 220 226 218 209 206 205 203 202 201 202 202 195 182 176 178 166 150 143 142 141 145 153 156 156 161 164 166 170 173 171 170 172 171 170 170 172 173 173 172 169 166 165 166 168 177 191 196 192 188 187 180 177 183 185 182 188 200 203 201 207 215 219 223 236 255 275 289 292 265 193 201 211 167
193 204 212 208 203 205 204 198 192 192 193 193 189 179 171 168 160 151 148 152 157 160 164 164 161 160 161 162 165 166 164 163 164 164 163 164 167 167 166 166 166 165 165 167 168 176 187 190 186 185 186 185 187 193 187 181 188 198 195 187 193 198 196 196 202 229 314 339 69 104 128 155 156 123
181 189 193 194 197 204 205 196 186 185 183 179 176 172 166 162 160 158 158 160 160 161 165 166 164 163 163 163 163 163 162 161 160 159 160 162 164 165 166 167 167 167 171 175 176 177 182 186 187 189 191 194 198 198 186 181 191 196 180 165 175 181 170 148 124 99 42 84 103 107 111 117 118 105
Height
1543 1544 1545 1546 1547 1548 1549 1550 1550 1551 1551 1551 1551 1552 1552 1553 1553 1553 1552 1552 1552 1552 1552 1552 1551 1551 1551 1549 1549 1550 1550 1550 1550 1550 1550 1550 1551 1550 1551 1551 1551 1552 1552 1552 1552 1553 1553 1553 1553 1553 1553 1554 1554 1554 1554 1555 1555 1555 1555 1555 1555 1555 1555 1555 1554 1554 1554 1554 1554 1553 1552 1552 1551 1550
1540 1541 1542 1544 1545 1546 1547 1547 1548 1548 1549 1549 1549 1550 1550 1550 1551 1551 1551 1550 1550 1550 1551 1551 1550 1549 1549 1548 1548 1549 1549 1548 1548 1548 1548 1548 1549 1548 1549 1549 1549 1549 1550 1550 1550 1550 1550 1551 1551 1551 1551 1552 1552 1552 1552 1552 1552 1553 1553 1553 1553 1553 1552 1552 1552 1552 1552 1552 1552 1551 1551 1550 1549 1549
1536 1538 1539 1541 1542 1543 1544 1545 1545 1546 1547 1547 1547 1548 1548 1548 1548 1549 1549 1548 1548 1549 1549 1549 1549 1548 1547 1547 1547 1548 1548 1547 1546 1547 1547 1546 1546 1546 1546 1547 1547 1547 1547 1547 1547 1548 1548 1548 1548 1549 1549 1549 1550 1550 1550 1550 1550 1550 1550 1550 1550 1550 1550 1550 1550 1550 1550 1550 1550 1549 1549 1548 1548 1547
1533 1534 1536 1537 1539 1540 1542 1543 1543 1544 1544 1544 1545 1545 1545 1546 1546 1546 1546 1546 1546 1547 1547 1547 1547 1547 1546 1546 1546 1547 1547 1545 1544 1545 1545 1544 1544 1544 1544 1544 1544 1544 1544 1544 1545 1545 1545 1546 1546 1546 1547 1547 1547 1548 1548 1548 1548 1548 1548 1548 1548 1548 1548 1548 1548 1548 1548 1548 1548 1547 1547 1547 1546 1546
1529 1531 1532 1534 1535 1537 1538 1539 1540 1541 1542 1542 1542 1543 1543 1543 1544 1544 1544 1544 1544 1544 1545 1546 1546 1545 1545 1545 1545 1545 1545 1544 1543 1543 1543 1542 1542 1542 1542 1542 1541 1541 1542 1542 1542 1542 1542 1543 1543 1544 1544 1545 1545 1545 1545 1546 1546 1546 1546 1546 1546 1545 1546 1546 1546 1546 1546 1546 1546 1545 1545 1545 1544 1544
1525 1527 1528 1530 1532 1534 1535 1536 1537 1538 1539 1539 1540 1540 1541 1541 1542 1542 1542 1542 1542 1542 1543 1543 1543 1543 1543 1543 1543 1542 1542 1542 1542 1541 1541 1540 1540 1540 1540 1540 1540 1539 1539 1539 1539 1539 1540 1540 1540 1541 1541 1542 1542 1542 1543 1543 1543 1543 1543 1543 1543 1543 1544 1544 1544 1544 1544 1543 1543 1543 1543 1543 1542 1542
1521 1523 1524 1526 1528 1530 1532 1532 1534 1535 1536 1537 1537 1538 1538 1539 1540 1540 1540 1540 1540 1540 1541 1541 1541 1541 1541 1540 1540 1539 1539 1539 1539 1539 1539 1538 1538 1538 1538 1538 1538 1537 1537 1537 1537 1537 1537 1537 1538 1538 1538 1539 1539 1539 1540 1540 1540 1540 1540 1540 1541 1541 1542 1542 1542 1541 1541 1541 1540 1540 1540 1540 1540 1540
1517 1518 1520 1522 1525 1527 1528 1529 1530 1531 1533 1534 1535 1535 1536 1536 1537 1538 1538 1538 1537 1538 1538 1538 1539 1539 1539 1538 1537 1537 1537 1537 1536 1536 1536 1536 1535 1535 1535 1535 1535 1535 1534 1535 1535 1535 1535 1535 1535 1535 1536 1536 1536 1537 1537 1537 1537 1537 1537 1538 1538 1539 1539 1539 1538 1538 1538 1538 1538 1537 1537 1538 1538 1538
1513 1514 1515 1518 1521 1523 1524 1525 1527 1528 1529 1531 1532 1532 1533 1534 1535 1535 1536 1536 1535 1535 1535 1535 1536 1536 1536 1536 1535 1535 1535 1535 1534 1534 1534 1533 1533 1533 1533 1533 1533 1532 1532 1532 1532 1532 1532 1533 1533 1533 1533 1533 1533 1533 1534 1534 1534 1534 1534 1534 1535 1535 1536 1536 1535 1536 1536 1536 1536 1535 1535 1535 1535 1535
1509 1510 1512 1514 1516 1517 1519 1521 1523 1524 1525 1527 1528 1530 1530 1531 1532 1533 1533 1533 1533 1533 1533 1533 1533 1533 1533 1533 1533 1532 1532 1532 1533 1532 1532 1531 1531 1530 1531 1531 1530 1529 1530 1530 1530 1530 1530 1530 1530 1530 1530 1530 1530 1530 1531 1531 1531 1531 1531 1531 1531 1532 1532 1532 1532 1533 1533 1533 1533 1533 1533 1533 1533 1533
1505 1506 1508 1510 1511 1513 1515 1517 1519 1521 1522 1523 1525 1526 1527 1528 1529 1530 1530 1530 1530 1530 1530 1530 1530 1530 1530 1530 1530 1530 1529 1529 1530 1530 1530 1530 1529 1528 1528 1529 1528 1527 1527 1527 1527 1527 1527 1527 1527 1527 1527 1527 1527 1527 1527 1528 1528 1528 1528 1528 1527 1528 1529 1529 1530 1531 1531 1531 1531 1531 1530 1530 1530 1530
1500 1502 1504 1506 1507 1509 1511 1513 1515 1517 1518 1519 1521 1522 1523 1524 1525 1526 1527 1527 1527 1527 1527 1527 1527 1527 1527 1527 1527 1527 1527 1526 1526 1526 1526 1527 1527 1526 1525 1525 1525 1525 1525 1525 1525 1525 1525 1524 1524 1524 1524 1524 1524 1524 1524 1524 1525 1525 1525 1525 1524 1525 1526 1527 1527 1528 1528 1528 1528 1528 1528 1528 1528 1527
1495 1497 1499 1501 1503 1504 1507 1509 1511 1513 1514 1515 1517 1518 1519 1520 1521 1522 1523 1524 1524 1524 1524 1524 1524 1524 1524 1524 1524 1524 1524 1524 1524 1523 1523 1523 1523 1524 1523 1522 1522 1522 1523 1523 1523 1524 1523 1522 1522 1521 1521 1521 1521 1521 1521 1521 1522 1522 1522 1522 1522 1523 1523 1524 1524 1525 1525 1525 1525 1525 1525 1525 1525 1525
1491 1493 1494 1496 1498 1500 1502 1505 1507 1508 1510 1511 1512 1513 1514 1516 1516 1517 1518 1520 1520 1520 1520 1521 1521 1521 1521 1521 1521 1521 1521 1521 1521 1521 1520 1520 1520 1521 1520 1520 1519 1519 1520 1520 1520 1520 1521 1520 1520 1519 1518 1518 1518 1518 1518 1518 1519 1519 1520 1520 1520 1520 1521 1521 1521 1522 1522 1522 1523 1523 1523 1523 1523 1523
1489 1490 1490 1491 1493 1496 1498 1500 1502 1504 1505 1506 1508 1509 1510 1511 1512 1513 1514 1515 1516 1517 1517 1518 1518 1518 1518 1518 1518 1518 1519 1518 1518 1518 1518 1518 1518 1517 1517 1518 1518 1518 1518 1518 1517 1517 1517 1517 1517 1517 1516 1516 1516 1516 1516 1516 1516 1517 1517 1517 1518 1518 1518 1519 1519 1519 1520 1520 1520 1520 1520 1520 1520 1520
1485 1486 1487 1488 1489 1491 1493 1495 1497 1499 1500 1502 1503 1505 1506 1507 1507 1508 1509 1511 1512 1512 1512 1513 1514 1514 1515 1516 1516 1516 1516 1516 1516 1515 1515 1515 1515 1515 1515 1515 1516 1517 1516 1515 1514 1513 1514 1513 1513 1514 1513 1514 1514 1513 1514 1514 1514 1515 1515 1515 1515 1516 1516 1516 1516 1517 1517 1517 1518 1518 1518 1518 1519 1519
1481 1482 1483 1485 1486 1487 1488 1491 1493 1494 1495 1497 1499 1500 1501 1502 1503 1504 1505 1506 1507 1507 1507 1508 1509 1510 1511 1512 1513 1514 1513 1513 1513 1512 1512 1512 1513 1513 1513 1513 1514 1514 1514 1512 1511 1511 1511 1511 1511 1511 1511 1511 1511 1511 1511 1512 1512 1512 1513 1513 1513 1514 1514 1514 1514 1515 1515 1515 1516 1516 1516 1517 1517 1517
1476 1478 1479 1480 1483 1484 1484 1485 1488 1490 1491 1493 1494 1496 1496 1497 1498 1499 1500 1501 1502 1502 1502 1503 1504 1506 1508 1508 1509 1511 1510 1510 1510 1509 1509 1509 1509 1510 1509 1510 1510 1510 1509 1509 1508 1509 1509 1509 1509 1509 1509 1508 1508 1509 1509 1510 1510 1511 1511 1511 1511 1512 1512 1512 1512 1513 1513 1514 1514 1514 1515 1515 1515 1515
1472 1474 1475 1476 1478 1481 1481 1481 1483 1485 1487 1488 1490 1491 1492 1492 1493 1494 1494 1495 1496 1497 1498 1499 1500 1502 1504 1505 1506 1508 1508 1506 1506 1506 1506 1506 1506 1506 1506 1505 1506 1505 1505 1505 1506 1507 1507 1507 1507 1506 1506 1506 1507 1506 1507 1508 1508 1509 1509 1509 1510 1510 1510 1510 1511 1511 1512 1512 1512 1513 1513 1513 1513 1514
1469 1470 1471 1472 1473 1475 1477 1478 1479 1481 1482 1484 1485 1486 1487 1488 1488 1488 1489 1490 1492 1493 1494 1495 1496 1498 1500 1501 1502 1504 1504 1503 1503 1503 1503 1503 1503 1503 1503 1502 1501 1501 1501 1502 1503 1504 1505 1505 1505 1505 1505 1505 1505 1505 1505 1506 1507 1507 1507 1508 1508 1508 1509 1509 1509 1510 1510 1510 1511 1511 1512 1512 1512 1512
1466 1467 1468 1469 1470 1472 1473 1474 1475 1477 1479 1480 1482 1482 1483 1484 1483 1484 1485 1486 1487 1489 1490 1491 1493 1495 1497 1497 1498 1500 1500 1500 1500 1500 1500 1500 1501 1500 1500 1499 1499 1498 1498 1499 1500 1502 1503 1503 1504 1504 1503 1504 1504 1504 1503 1504 1505 1505 1506 1506 1506 1507 1507 1507 1508 1508 1508 1509 1509 1510 1510 1510 1511 1511
1462 1464 1466 1466 1467 1468 1469 1470 1472 1473 1475 1476 1478 1479 1480 1480 1479 1480 1481 1482 1483 1484 1486 1488 1489 1491 1492 1493 1495 1495 1496 1497 1497 1496 1497 1498 1499 1498 1498 1497 1497 1496 1496 1497 1499 1500 1501 1502 1502 1502 1501 1502 1502 1502 1502 1503 1504 1504 1504 1505 1505 1505 1505 1506 1506 1506 1507 1507 1508 1508 1509 1509 1509 1509
1459 1461 1462 1462 1463 1464 1465 1467 1468 1469 1470 1472 1473 1475 1477 1476 1476 1477 1478 1478 1479 1480 1482 1483 1484 1486 1487 1489 1490 1491 1492 1492 1493 1493 1494 1495 1496 1496 1496 1495 1495 1494 1494 1496 1497 1498 1499 1500 1500 1499 1500 1501 1501 1501 1501 1501 1502 1503 1503 1503 1503 1504 1504 1504 1504 1505 1505 1506 1507 1507 1508 1508 1508 1508
1455 1457 1458 1458 1460 1461 1462 1464 1465 1466 1467 1468 1469 1471 1472 1472 1473 1475 1476 1476 1477 1478 1479 1479 1481 1482 1483 1484 1485 1486 1487 1488 1489 1490 1491 1492 1492 1493 1493 1493 1493 1493 1493 1494 1495 1496 1497 1498 1498 1498 1498 1499 1500 1500 1500 1500 1501 1501 1501 1502 1502 1502 1503 1503 1503 1504 1504 1505 1506 1506 1507 1507 1507 1507
1452 1453 1454 1456 1457 1458 1459 1460 1462 1462 1463 1464 1465 1467 1467 1468 1470 1472 1473 1474 1474 1475 1476 1477 1478 1478 1478 1480 1481 1482 1483 1484 1485 1486 1487 1488 1489 1489 1490 1491 1491 1492 1492 1493 1493 1494 1495 1496 1497 1497 1497 1498 1499 1500 1499 1499 1500 1500 1501 1501 1501 1501 1501 1502 1502 1502 1503 1504 1504 1505 1505 1505 1505 1506
1450 1450 1452 1454 1455 1455 1455 1457 1458 1459 1460 1460 1461 1462 1463 1465 1467 1468 1469 1470 1470 1470 1471 1472 1473 1473 1474 1475 1477 1477 1478 1480 1481 1482 1483 1485 1485 1486 1488 1489 1489 1490 1491 1491 1492 1494 1494 1495 1496 1496 1496 1497 1498 1499 1498 1498 1499 1499 1499 1500 1500 1500 1500 1501 1501 1501 1502 1502 1503 1503 1504 1504 1504 1504
1448 1449 1450 1452 1453 1453 1453 1454 1454 1455 1456 1456 1456 1457 1459 1461 1462 1463 1465 1465 1466 1466 1467 1467 1468 1469 1470 1471 1472 1473 1475 1476 1477 1479 1480 1481 1482 1483 1485 1487 1488 1489 1490 1490 1491 1493 1493 1494 1494 1495 1495 1496 1497 1497 1497 1497 1497 1498 1498 1499 1499 1499 1499 1500 1500 1500 1501 1501 1501 1502 1502 1502 1502 1502
1445 1446 1447 1448 1449 1449 1450 1450 1451 1451 1451 1452 1452 1453 1455 1457 1458 1459 1460 1460 1461 1462 1462 1463 1463 1464 1466 1467 1468 1470 1472 1473 1474 1476 1477 1479 1480 1481 1483 1484 1486 1487 1488 1488 1490 1491 1492 1492 1493 1493 1494 1495 1496 1496 1496 1496 1496 1497 1497 1498 1498 1498 1498 1499 1500 1500 1500 1500 1500 1500 1501 1501 1501 1501
1443 1444 1444 1445 1446 1446 1447 1447 1447 1447 1447 1448 1448 1449 1451 1452 1453 1454 1455 1456 1457 1457 1457 1457 1459 1460 1462 1463 1465 1467 1469 1470 1471 1473 1475 1476 1477 1479 1481 1483 1484 1485 1485 1487 1488 1489 1490 1490 1491 1492 1493 1494 1495 1495 1495 1496 1496 1496 1497 1497 1497 1497 1497 1498 1498 1499 1498 1498 1499 1499 1499 1500 1500 1500
1440 1441 1441 1442 1443 1443 1444 1444 1444 1444 1444 1444 1445 1446 1446 1447 1448 1449 1450 1451 1451 1452 1452 1452 1454 1456 1457 1459 1461 1464 1465 1467 1468 1470 1472 1473 1475 1477 1479 1480 1481 1483 1484 1485 1487 1487 1488 1489 1490 1491 1491 1492 1493 1494 1495 1496 1496 1496 1496 1497 1497 1496 1496 1496 1497 1497 1497 1497 1498 1498 1498 1499 1499 1499
1438 1438 1439 1439 1440 1440 1440 1440 1440 1441 1441 1441 1441 1442 1442 1443 1443 1444 1446 1446 1446 1447 1447 1448 1450 1452 1454 1456 1458 1460 1462 1463 1465 1467 1468 1471 1472 1474 1476 1478 1479 1481 1483 1484 1485 1486 1487 1488 1489 1489 1490 1491 1492 1493 1494 1495 1495 1496 1496 1496 1496 1496 1496 1495 1495 1496 1496 1496 1497 1497 1497 1498 1498 1498
1436 1436 1437 1437 1437 1437 1437 1437 1437 1437 1438 1438 1438 1438 1439 1439 1439 1440 1441 1442 1442 1442 1443 1445 1446 1448 1450 1452 1454 1457 1458 1460 1461 1463 1465 1468 1470 1472 1474 1476 1478 1479 1481 1482 1483 1484 1485 1486 1487 1488 1489 1489 1490 1491 1492 1493 1494 1495 1495 1495 1496 1496 1496 1495 1495 1495 1495 1496 1497 1497 1498 1498 1499 1499
1434 1435 1435 1435 1435 1435 1435 1435 1435 1435 1435 1435 1434 1435 1435 1435 1436 1436 1436 1437 1437 1438 1439 1441 1442 1445 1447 1448 1450 1452 1454 1456 1458 1460 1462 1465 1467 1469 1472 1474 1475 1478 1480 1481 1482 1483 1484 1485 1486 1487 1488 1488 1489 1490 1491 1493 1494 1495 1495 1495 1496 1496 1496 1496 1496 1495 1495 1496 1498 1498 1498 1499 1500 1500
1433 1433 1433 1434 1434 1434 1434 1434 1434 1433 1432 1432 1431 1431 1431 1431 1432 1432 1432 1433 1433 1434 1435 1437 1439 1441 1444 1445 1446 1448 1450 1452 1455 1458 1460 1462 1465 1467 1470 1472 1474 1476 1478 1479 1480 1482 1483 1484 1485 1486 1487 1488 1488 1489 1490 1492 1494 1495 1495 1495 1496 1496 1496 1496 1496 1496 1496 1497 1498 1499 1499 1499 1499 1499
1431 1432 1432 1433 1433 1432 1432 1432 1432 1432 1431 1430 1429 1429 1428 1428 1429 1429 1429 1430 1431 1431 1432 1434 1436 1438 1440 1442 1443 1445 1447 1450 1452 1455 1457 1460 1463 1465 1468 1470 1472 1474 1476 1478 1479 1481 1482 1483 1485 1486 1486 1487 1488 1489 1490 1492 1493 1494 1494 1495 1495 1495 1496 1496 1496 1496 1496 1497 1498 1498 1499 1499 1498 1497
1430 1430 1431 1431 1431 1431 1431 1431 1431 1430 1430 1429 1428 1427 1426 1426 1426 1427 1427 1427 1428 1429 1430 1432 1434 1436 1438 1440 1441 1443 1445 1448 1450 1452 1454 1458 1461 1464 1466 1468 1470 1472 1475 1477 1478 1480 1481 1483 1484 1485 1486 1487 1488 1490 1491 1492 1492 1493 1493 1494 1495 1495 1495 1495 1495 1496 1496 1497 1497 1497 1498 1498 1498 1497
1428 1429 1429 1429 1430 1430 1430 1430 1430 1429 1429 1428 1428 1427 1426 1425 1424 1424 1425 1425 1426 1428 1429 1431 1433 1435 1437 1439 1439 1440 1442 1446 1448 1449 1453 1457 1460 1462 1464 1467 1469 1472 1474 1476 1478 1479 1481 1482 1484 1485 1487 1487 1488 1490 1491 1491 1492 1492 1493 1493 1494 1494 1494 1494 1494 1495 1496 1496 1496 1497 1497 1497 1497 1496
1426 1427 1427 1428 1428 1429 1429 1429 1429 1429 1429 1428 1427 1426 1425 1424 1423 1423 1424 1424 1425 1426 1428 1430 1432 1433 1435 1437 1437 1436 1437 1441 1446 1449 1453 1456 1458 1461 1463 1466 1468 1471 1473 1475 1477 1478 1480 1482 1484 1485 1487 1487 1488 1489 1490 1491 1491 1492 1492 1493 1493 1493 1493 1494 1495 1495 1495 1495 1496 1496 1496 1496 1496 1496
1425 1425 1425 1426 1427 1427 1427 1428 1428 1428 1429 1428 1427 1426 1426 1424 1424 1424 1424 1424 1425 1426 1427 1429 1431 1433 1435 1437 1438 1437 1437 1441 1446 1450 1453 1456 1458 1460 1463 1465 1467 1470 1472 1474 1476 1478 1480 1482 1483 1485 1486 1487 1487 1488 1489 1490 1491 1491 1492 1492 1493 1493 1493 1494 1494 1495 1495 1495 1495 1495 1495 1495 1495 1495
1423 1424 1424 1425 1425 1425 1426 1426 1426 1427 1428 1428 1428 1427 1426 1425 1424 1425 1425 1425 1426 1428 1428 1429 1432 1435 1437 1439 1440 1441 1442 1445 1449 1452 1454 1456 1458 1460 1463 1465 1467 1469 1471 1473 1475 1477 1479 1481 1483 1484 1485 1486 1486 1486 1488 1489 1490 1491 1491 1492 1492 1492 1493 1493 1494 1494 1494 1495 1495 1495 1494 1494 1494 1494
1422 1423 1423 1423 1424 1424 1424 1425 1425 1425 1426 1427 1427 1427 1426 1426 1425 1426 1426 1427 1429 1430 1430 1431 1433 1436 1439 1440 1442 1442 1443 1446 1449 1452 1455 1457 1458 1460 1462 1464 1466 1468 1470 1472 1474 1476 1478 1480 1481 1483 1484 1484 1485 1486 1487 1489 1490 1490 1490 1491 1491 1492 1492 1492 1493 1493 1493 1494 1494 1494 1494 1494 1494 1494
1420 1421 1421 1422 1422 1423 1423 1424 1424 1425 1425 1426 1426 1427 1427 1426 1426 1427 1428 1429 1430 1432 1432 1433 1435 1438 1440 1441 1443 1443 1444 1446 1450 1452 1455 1457 1458 1460 1462 1464 1466 1468 1470 1472 1474 1476 1477 1479 1480 1482 1483 1484 1485 1486 1487 1488 1489 1488 1489 1490 1490 1490 1491 1491 1492 1492 1492 1493 1493 1493 1493 1493 1493 1494
1417 1419 1419 1419 1420 1421 1422 1423 1423 1424 1425 1425 1426 1427 1427 1427 1427 1428 1429 1430 1432 1433 1435 1435 1437 1439 1440 1442 1443 1444 1446 1448 1450 1452 1454 1456 1458 1459 1462 1464 1466 1468 1470 1472 1474 1475 1476 1477 1479 1481 1482 1483 1484 1485 1486 1486 1486 1487 1488 1489 1489 1489 1490 1491 1491 1492 1492 1492 1492 1492 1492 1492 1493 1493
1415 1416 1417 1417 1419 1420 1421 1422 1423 1423 1424 1425 1426 1426 1427 1428 1428 1429 1430 1431 1433 1435 1436 1437 1438 1439 1440 1441 1443 1445 1447 1448 1450 1452 1454 1456 1458 1460 1462 1464 1466 1468 1470 1471 1473 1474 1475 1477 1479 1480 1481 1482 1483 1484 1485 1485 1484 1485 1487 1487 1488 1489 1490 1490 1491 1491 1491 1491 1491 1492 1492 1492 1492 1493
1413 1414 1415 1416 1418 1419 1420 1421 1422 1423 1424 1425 1425 1426 1427 1428 1429 1430 1431 1432 1433 1435 1436 1437 1438 1440 1440 1442 1444 1445 1447 1449 1450 1452 1454 1456 1458 1460 1462 1464 1466 1468 1469 1470 1472 1473 1475 1477 1478 1479 1481 1482 1482 1483 1484 1484 1484 1484 1486 1486 1487 1488 1489 1490 1491 1491 1491 1491 1491 1492 1492 1492 1493 1493